TimeMDT,TemperatureF,Dew PointF,Humidity,Sea Level PressureIn,VisibilityMPH,Wind Direction,Wind SpeedMPH,Gust SpeedMPH,PrecipitationIn,Events,Conditions,WindDirDegrees,DateUTC
12:52 AM,37.9,18.0,45,30.04,10.0,South,6.9,-,N/A,,Clear,180,2012-10-04 06:52:00
1:52 AM,36.0,23.0,59,30.04,10.0,SSE,8.1,-,N/A,,Clear,160,2012-10-04 07:52:00
2:52 AM,37.0,26.1,65,30.02,10.0,South,6.9,-,N/A,,Clear,170,2012-10-04 08:52:00
3:52 AM,36.0,26.1,67,30.03,10.0,SSE,5.8,-,N/A,,Clear,160,2012-10-04 09:52:00
4:52 AM,33.1,25.0,72,30.05,10.0,Calm,Calm,-,N/A,,Clear,0,2012-10-04 10:52:00
5:52 AM,36.0,26.1,67,30.05,10.0,East,8.1,-,N/A,,Clear,80,2012-10-04 11:52:00
6:52 AM,34.0,25.0,70,30.11,10.0,Calm,Calm,-,N/A,,Clear,0,2012-10-04 12:52:00
7:52 AM,35.1,26.1,70,30.14,10.0,Calm,Calm,-,N/A,,Clear,0,2012-10-04 13:52:00
8:52 AM,44.6,26.6,49,30.28,10.0,ESE,5.8,-,N/A,,Clear,120,2012-10-04 14:52:00
9:52 AM,57.0,26.1,30,30.10,10.0,Calm,Calm,-,N/A,,Clear,0,2012-10-04 15:52:00
10:52 AM,66.9,23.0,19,30.04,10.0,South,13.8,21.9,N/A,,Clear,190,2012-10-04 16:52:00
11:52 AM,70.0,24.1,18,30.02,10.0,WNW,8.1,-,N/A,,Clear,300,2012-10-04 17:52:00
12:52 PM,73.0,21.0,14,30.00,10.0,WSW,24.2,32.2,N/A,,Clear,250,2012-10-04 18:52:00
1:52 PM,73.0,21.0,14,29.98,10.0,West,21.9,33.4,N/A,,Clear,260,2012-10-04 19:52:00
2:52 PM,73.0,19.0,13,29.96,10.0,West,20.7,28.8,N/A,,Clear,270,2012-10-04 20:52:00
3:52 PM,72.0,19.0,13,29.96,10.0,WSW,18.4,31.1,N/A,,Clear,240,2012-10-04 21:52:00
4:52 PM,70.0,19.0,14,29.97,10.0,WSW,23.0,35.7,N/A,,Clear,250,2012-10-04 22:52:00
5:52 PM,66.9,19.9,17,29.98,10.0,West,23.0,26.5,N/A,,Clear,260,2012-10-04 23:52:00
6:52 PM,62.1,21.0,21,30.02,10.0,WSW,13.8,-,N/A,,Clear,240,2012-10-05 00:52:00
7:52 PM,57.9,19.9,23,30.04,10.0,SW,12.7,-,N/A,,Clear,230,2012-10-05 01:52:00
8:52 PM,55.0,19.9,25,30.01,10.0,SW,8.1,19.6,N/A,,Clear,230,2012-10-05 02:52:00
9:52 PM,51.1,19.9,29,29.97,10.0,South,11.5,-,N/A,,Clear,190,2012-10-05 03:52:00
10:52 PM,50.0,21.0,32,29.92,10.0,SSW,8.1,-,N/A,,Clear,200,2012-10-05 04:52:00
11:52 PM,50.0,21.0,32,29.91,10.0,Calm,Calm,-,N/A,,Clear,0,2012-10-05 05:52:00